AMAZONAS 1

Last updated on Mon Sep 04 2017 00:18:18 GMT+0000 (Coordinated Universal Time)

1 28393U 04031A 17246.57826918 -.00000134 00000-0 00000-0 0 9998 2 28393 1.9130 83.4100 0012018 25.2973 277.0787 0.98456981 47882

Satellite not in orbit

AMAZONAS 1